Glasgow, KY

7:19 PM CDT on May 20, 2018 (GMT -0500)
Glasgow Municipal

Weather History for KGLW - November, 2012

Change the Weather History Date:

Friday, November 2, 2012

  Actual Average Record
Temperature  
Mean Temperature 50 °F -  
Max Temperature 61 °F 65 °F 83 °F (1961)
Min Temperature 38 °F 44 °F 21 °F (1954)
Degree Days  
Heating Degree Days 15    
Moisture  
Dew Point 33 °F    
Average Humidity 53    
Maximum Humidity 77    
Minimum Humidity 30    
Precipitation  
Precipitation 0.00 in - - ()
Sea Level Pressure  
Sea Level Pressure 29.97 in    
Wind  
Wind Speed 2 mph (NW)    
Max Wind Speed 7 mph    
Max Gust Speed -    
Visibility 10 miles    
Events      
Averages and records for this station are not official NWS values.
T = Trace of Precipitation, MM = Missing Value Source: NWS Daily Summary

Daily Weather History Graph

Daily Weather History Graph

Search for Another Location

Airport or City:

Astronomy

Nov. 02, 2012 Rise Set
Actual Time 7:09 AM CDT 5:44 PM CDT
Civil Twilight 6:42 AM CDT 6:11 PM CDT
Nautical Twilight 6:11 AM CDT 6:42 PM CDT
Astronomical Twilight 5:41 AM CDT 7:12 PM CDT
Moon 8:34 PM CDT (11/2) 10:26 AM CDT (11/2)
Length of Visible Light 11h 29m
Length of Day
10h 35m
Waning Gibbous, 87% of the Moon is Illuminated
Nov 2
Waning Gibbous
Nov 6
Last Quarter
Nov 13
New
Nov 20
First Quarter
Nov 28
Full

Hourly Weather History & Observations

Time (CDT) Temp. Windchill Dew Point Humidity Pressure Visibility Wind Dir Wind Speed Gust Speed Precip Events Conditions
12:15 AM 48.7 °F - 32.0 °F 52% 29.92 in 10.0 mi WSW 3.5 mph - N/A   Overcast
12:35 AM 49.3 °F - 32.0 °F 51% 29.92 in 10.0 mi Calm Calm - N/A   Overcast
12:55 AM 49.6 °F - 32.0 °F 51% 29.91 in 10.0 mi Calm Calm - N/A   Overcast
1:15 AM 49.3 °F - 32.0 °F 51% 29.91 in 10.0 mi Calm Calm - N/A   Overcast
1:35 AM 48.7 °F - 32.2 °F 53% 29.91 in 10.0 mi WSW 3.5 mph - N/A   Overcast
1:55 AM 48.2 °F - 33.3 °F 56% 29.90 in 10.0 mi Calm Calm - N/A   Mostly Cloudy
2:15 AM 48.7 °F - 32.2 °F 53% 29.90 in 10.0 mi Calm Calm - N/A   Mostly Cloudy
2:55 AM 49.8 °F - 32.2 °F 51% 29.89 in 10.0 mi SW 3.5 mph - N/A   Overcast
3:15 AM 49.1 °F - 34.0 °F 56% 29.89 in 10.0 mi WSW 3.5 mph - N/A   Overcast
3:35 AM 48.9 °F - 35.1 °F 59% 29.88 in 10.0 mi SW 4.6 mph - N/A   Overcast
3:55 AM 48.6 °F - 35.2 °F 60% 29.89 in 10.0 mi WSW 3.5 mph - N/A   Overcast
4:15 AM 49.3 °F - 34.2 °F 56% 29.88 in 10.0 mi Calm Calm - N/A   Overcast
4:35 AM 48.6 °F - 34.0 °F 57% 29.88 in 10.0 mi WSW 5.8 mph - N/A   Scattered Clouds
4:55 AM 46.9 °F - 33.4 °F 59% 29.89 in 10.0 mi WSW 3.5 mph - N/A   Clear
5:15 AM 46.6 °F - 33.1 °F 59% 29.89 in 10.0 mi WSW 4.6 mph - N/A   Clear
5:35 AM 45.9 °F 44.6 °F 33.3 °F 61% 29.89 in 10.0 mi WSW 3.5 mph - N/A   Clear
5:55 AM 45.7 °F 44.4 °F 32.9 °F 61% 29.90 in 10.0 mi West 3.5 mph - N/A   Clear
6:35 AM 45.1 °F 42.8 °F 33.3 °F 63% 29.91 in 10.0 mi West 4.6 mph - N/A   Clear
6:55 AM 45.3 °F - 33.3 °F 63% 29.91 in 10.0 mi Calm Calm - N/A   Clear
7:15 AM 44.4 °F - 33.3 °F 65% 29.93 in 10.0 mi Calm Calm - N/A   Clear
7:35 AM 41.9 °F - 32.9 °F 70% 29.93 in 10.0 mi Calm Calm - N/A   Clear
7:55 AM 41.9 °F - 33.8 °F 73% 29.94 in 10.0 mi Calm Calm - N/A   Clear
8:15 AM 43.0 °F - 35.1 °F 74% 29.95 in 10.0 mi Calm Calm - N/A   Clear
8:55 AM 49.5 °F - 36.0 °F 60% 29.97 in 10.0 mi WNW 4.6 mph - N/A   Clear
9:35 AM 51.8 °F - 36.7 °F 56% 29.98 in 10.0 mi North 4.6 mph - N/A   Clear
9:55 AM 53.2 °F - 36.9 °F 54% 29.98 in 10.0 mi North 5.8 mph - N/A   Clear
10:15 AM 54.3 °F - 36.9 °F 52% 29.99 in 10.0 mi North 3.5 mph - N/A   Clear
10:35 AM 55.6 °F - 36.1 °F 48% 29.99 in 10.0 mi ENE 3.5 mph - N/A   Clear
11:15 AM 57.4 °F - 35.2 °F 43% 30.00 in 10.0 mi NE 4.6 mph - N/A   Clear
11:35 AM 58.3 °F - 34.5 °F 41% 30.00 in 10.0 mi North 5.8 mph - N/A   Clear
11:55 AM 58.6 °F - 34.3 °F 40% 29.99 in 10.0 mi North 6.9 mph - N/A   Clear
12:15 PM 59.4 °F - 33.1 °F 37% 29.99 in 10.0 mi Calm Calm - N/A   Clear
12:35 PM 59.7 °F - 33.8 °F 38% 29.98 in 7.0 mi Calm Calm - N/A   Clear
12:55 PM 59.7 °F - 32.9 °F 36% 29.98 in 10.0 mi NNE 5.8 mph - N/A   Clear
1:15 PM 59.7 °F - 32.7 °F 36% 29.98 in 10.0 mi East 3.5 mph - N/A   Clear
1:55 PM 60.4 °F - 32.0 °F 34% 29.98 in 7.0 mi Calm Calm - N/A   Clear
2:15 PM 60.8 °F - 30.6 °F 32% 29.99 in 10.0 mi NNW 3.5 mph - N/A   Clear
2:35 PM 61.0 °F - 29.5 °F 30% 29.99 in 10.0 mi North 4.6 mph - N/A   Clear
2:55 PM 61.0 °F - 29.3 °F 30% 29.99 in 10.0 mi NNW 4.6 mph - N/A   Clear
3:15 PM 60.8 °F - 28.9 °F 30% 29.99 in 10.0 mi Calm Calm - N/A   Clear
4:15 PM 60.3 °F - 28.2 °F 30% 30.00 in 10.0 mi NNW 3.5 mph - N/A   Clear
4:35 PM 59.5 °F - 28.4 °F 31% 30.00 in 10.0 mi North 6.9 mph - N/A   Clear
4:55 PM 58.6 °F - 28.8 °F 32% 30.00 in 10.0 mi North 4.6 mph - N/A   Clear
5:15 PM 57.4 °F - 29.3 °F 34% 30.00 in 10.0 mi Calm Calm - N/A   Clear
5:55 PM 54.0 °F - 29.3 °F 39% 30.01 in 10.0 mi Calm Calm - N/A   Clear
6:15 PM 51.6 °F - 30.6 °F 45% 30.01 in 10.0 mi Calm Calm - N/A   Clear
6:35 PM 49.6 °F - 31.5 °F 50% 30.02 in 10.0 mi Calm Calm - N/A   Clear
6:55 PM 48.7 °F - 31.8 °F 52% 30.03 in 10.0 mi Calm Calm - N/A   Clear
7:15 PM 47.7 °F - 31.8 °F 54% 30.04 in 10.0 mi Calm Calm - N/A   Clear
7:55 PM 45.5 °F - 31.6 °F 58% 30.04 in 10.0 mi Calm Calm - N/A   Clear
8:15 PM 43.7 °F - 32.0 °F 63% 30.04 in 10.0 mi Calm Calm - N/A   Clear
8:35 PM 44.1 °F - 32.0 °F 63% 30.05 in 10.0 mi Calm Calm - N/A   Clear
8:55 PM 41.9 °F - 32.0 °F 68% 30.05 in 10.0 mi Calm Calm - N/A   Clear
9:15 PM 40.8 °F - 32.2 °F 71% 30.06 in 10.0 mi Calm Calm - N/A   Clear
9:35 PM 40.3 °F - 32.2 °F 73% 30.06 in 10.0 mi Calm Calm - N/A   Clear
9:55 PM 39.7 °F 37.6 °F 32.0 °F 74% 30.07 in 10.0 mi East 3.5 mph - N/A   Clear
10:15 PM 39.9 °F - 32.0 °F 73% 30.07 in 10.0 mi Calm Calm - N/A   Clear
10:35 PM 39.6 °F - 32.0 °F 74% 30.07 in 10.0 mi Calm Calm - N/A   Clear
10:55 PM 39.2 °F - 32.0 °F 75% 30.07 in 10.0 mi Calm Calm - N/A   Clear
11:15 PM 39.6 °F - 31.8 °F 74% 30.07 in 10.0 mi Calm Calm - N/A   Clear
11:35 PM 38.3 °F - 31.8 °F 77% 30.07 in 10.0 mi Calm Calm - N/A   Clear